Swampscott High School MA US WEATHERSTEM current weather conditions

sailwx.info

Wind from 143 at 1 knots gusting 6

Air temperature 31.2° C
Dewpoint 17.4° C

Last reported at 2020-Aug-12 18:00 UTC.
Time now 2020-Aug-12 18:19 UTC

Location: N 42°29' W 070°55'.
View on Google Maps.

See reports from other nearby stations

  
Tides and Currents Weather Stations Pressure Air Temp Water Temp Dewpoint Dewpoint Depression Visibility Wind Speed Wind Dir Waves Ship Positions
date/time (UTC)wind fromknots sea level pressurealtimeterstation pressurevisibilityair tempwater tempwave heightnotes
2020-Aug-12 18:00 143 1 gusting 6 31.2
2020-Aug-12 17:50 184 3 gusting 8 30.8
2020-Aug-12 17:40 174 5 gusting 9 31.6
2020-Aug-12 17:30 203 4 gusting 6 31.1
2020-Aug-12 17:20 174 1 gusting 7 30.8
2020-Aug-12 17:00 168 4 gusting 7 30.1
2020-Aug-12 16:50 192 2 gusting 6 30.2
2020-Aug-12 16:40 188 2 gusting 7 30.4
2020-Aug-12 16:30 201 1 gusting 7 30.6
2020-Aug-12 16:20 209 4 gusting 7 30.3
2020-Aug-12 16:10 200 5 gusting 8 29.5
2020-Aug-12 16:00 217 2 gusting 10 30.9
2020-Aug-12 15:50 221 6 gusting 7 30.1
2020-Aug-12 15:40 238 4 gusting 9 30.7
2020-Aug-12 15:30 30.5
2020-Aug-12 15:10 189 3 gusting 12 29.5
2020-Aug-12 15:00 057 0 gusting 6 29.8
2020-Aug-12 14:50 132 1 gusting 10 29.3
2020-Aug-12 14:40 29.2
2020-Aug-12 14:30 319 4 gusting 10 29.1
2020-Aug-12 14:20 349 8 gusting 8 28.9
2020-Aug-12 14:10 011 3 gusting 9 28.8
2020-Aug-12 14:00 168 4 gusting 12 28.3
2020-Aug-12 13:50 255 1 gusting 10 28.0
2020-Aug-12 13:40 238 7 gusting 10 28.0
2020-Aug-12 13:20 296 4 gusting 12 28.0
2020-Aug-12 13:10 196 1 gusting 9 27.6
2020-Aug-12 13:00 216 7 gusting 12 27.4
2020-Aug-12 12:50 254 6 gusting 10 27.2
2020-Aug-12 12:40 220 5 gusting 11 27.3
2020-Aug-12 12:20 225 2 gusting 13 26.2
2020-Aug-12 12:10 207 6 gusting 12 26.0
2020-Aug-12 12:00 244 7 gusting 11 25.6
2020-Aug-12 11:50 215 3 gusting 9 25.4
2020-Aug-12 11:20 228 3 gusting 13 25.3
2020-Aug-12 11:00 230 6 gusting 12 25.2
2020-Aug-12 10:50 215 5 gusting 13 25.3
2020-Aug-12 10:40 215 6 gusting 12 25.3
2020-Aug-12 10:20 256 7 gusting 7 25.3
2020-Aug-12 10:10 234 11 gusting 12 25.3
2020-Aug-12 10:00 221 8 gusting 12 25.3
2020-Aug-12 09:50 216 6 gusting 12 25.3
2020-Aug-12 09:40 234 6 gusting 13 25.3
2020-Aug-12 09:20 250 8 gusting 13 25.3
2020-Aug-12 09:10 231 6 gusting 16 25.3
2020-Aug-12 09:00 234 9 gusting 15 25.3
2020-Aug-12 08:50 231 8 gusting 15 25.3
2020-Aug-12 08:40 159 4 gusting 13 25.3
2020-Aug-12 08:30 244 8 gusting 15 25.4
2020-Aug-12 08:20 244 10 gusting 15 25.4
2020-Aug-12 08:10 219 8 gusting 21 25.3
2020-Aug-12 08:00 223 6 gusting 14 25.2
2020-Aug-12 07:50 182 5 gusting 17 25.3
2020-Aug-12 07:40 184 6 gusting 14 25.3
2020-Aug-12 07:30 223 12 gusting 17 25.3
2020-Aug-12 07:10 221 9 gusting 18 25.1
2020-Aug-12 06:50 198 4 gusting 9 24.4
2020-Aug-12 06:40 201 3 gusting 9 24.2
2020-Aug-12 06:30 186 5 gusting 8 23.9
2020-Aug-12 06:20 205 6 gusting 9 23.9
2020-Aug-12 06:10 195 5 gusting 9 24.0
2020-Aug-12 05:40 231 11 gusting 12 24.3
2020-Aug-12 05:30 217 6 gusting 11 24.3
2020-Aug-12 05:20 201 6 gusting 11 24.7
2020-Aug-12 05:10 200 3 gusting 15 25.2
2020-Aug-12 05:00 178 4 gusting 15 25.2
2020-Aug-12 04:50 244 13 gusting 13 24.8
2020-Aug-12 04:40 192 1 gusting 10 24.3
2020-Aug-12 04:30 186 4 gusting 10 24.2
2020-Aug-12 04:20 207 6 gusting 11 24.1
2020-Aug-12 04:00 213 9 gusting 10 24.1
2020-Aug-12 03:50 203 8 gusting 9 24.3
2020-Aug-12 03:40 211 4 gusting 13 24.9
2020-Aug-12 03:30 223 6 gusting 13 24.8
2020-Aug-12 03:20 227 6 gusting 8 24.7
2020-Aug-12 03:10 215 8 gusting 13 24.9
2020-Aug-12 03:00 235 11 gusting 11 24.8
2020-Aug-12 02:50 171 7 gusting 10 24.7
2020-Aug-12 02:40 181 3 gusting 10 24.8
2020-Aug-12 02:30 224 9 gusting 13 24.8
2020-Aug-12 02:20 236 9 gusting 13 24.8
2020-Aug-12 02:10 203 8 gusting 13 25.2
2020-Aug-12 02:00 184 6 gusting 14 25.3
2020-Aug-12 01:40 213 6 gusting 13 25.6
2020-Aug-12 01:30 225 5 gusting 13 25.3
2020-Aug-12 01:20 178 5 gusting 13 25.6
2020-Aug-12 01:10 196 6 gusting 14 25.6
2020-Aug-12 01:00 173 9 gusting 13 25.6
2020-Aug-12 00:50 211 2 gusting 15 25.8
2020-Aug-12 00:40 161 6 gusting 13 25.9
2020-Aug-12 00:30 229 9 gusting 12 25.8
2020-Aug-12 00:20 219 8 gusting 13 26.1
2020-Aug-12 00:10 168 7 gusting 14 26.8
2020-Aug-12 00:00 191 11 gusting 19 27.1
2020-Aug-11 23:30 223 16 gusting 19 27.6
2020-Aug-11 23:20 160 8 gusting 12 27.3
2020-Aug-11 23:10 205 12 gusting 13 27.2
2020-Aug-11 23:00 232 8 gusting 13 26.9
2020-Aug-11 22:50 171 6 gusting 13 27.4
2020-Aug-11 22:40 184 6 gusting 14 28.2
2020-Aug-11 22:20 200 6 gusting 15 28.1
2020-Aug-11 22:10 144 7 gusting 13 28.5
2020-Aug-11 22:00 189 11 gusting 16 28.7
2020-Aug-11 21:50 165 8 gusting 16 29.1
2020-Aug-11 21:30 188 6 gusting 17 30.2
2020-Aug-11 21:20 200 9 gusting 15 30.2
2020-Aug-11 21:10 201 8 gusting 18 30.1
2020-Aug-11 21:00 211 11 gusting 16 30.2
2020-Aug-11 20:50 202 8 gusting 13 30.4
2020-Aug-11 20:40 186 9 gusting 15 29.8
2020-Aug-11 20:30 169 7 gusting 12 29.7
2020-Aug-11 20:20 206 6 gusting 13 30.6
2020-Aug-11 20:10 206 5 gusting 13 30.6
2020-Aug-11 20:00 167 8 gusting 15 30.9
2020-Aug-11 19:50 184 8 gusting 17 31.1
2020-Aug-11 19:40 218 6 gusting 14 30.4
2020-Aug-11 19:30 171 6 gusting 14 30.4
2020-Aug-11 19:20 204 5 gusting 13 30.8
2020-Aug-11 19:10 145 9 gusting 17 30.5
2020-Aug-11 19:00 190 8 gusting 13 30.5
2020-Aug-11 18:50 155 10 gusting 15 30.1
2020-Aug-11 18:40 173 12 gusting 12 30.5
2020-Aug-11 18:30 189 10 gusting 13 30.5
2020-Aug-11 18:20 182 9 gusting 13 29.7
2020-Aug-11 18:10 184 6 gusting 14 29.4
2020-Aug-11 18:00 186 11 gusting 14 29.6
2020-Aug-11 17:50 166 4 gusting 12 32.4
2020-Aug-11 17:40 179 3 gusting 13 32.8
2020-Aug-11 17:30 184 8 gusting 16 32.2
2020-Aug-11 17:20 196 4 gusting 13 32.6
2020-Aug-11 17:10 199 6 gusting 17 32.3
2020-Aug-11 17:00 205 6 gusting 13 32.8
2020-Aug-11 16:50 247 6 gusting 9 32.7
2020-Aug-11 16:40 207 7 gusting 13 32.4
2020-Aug-11 16:10 213 2 gusting 7 30.8
2020-Aug-11 16:00 207 1 gusting 7 30.3
2020-Aug-11 15:50 166 2 gusting 12 29.9
2020-Aug-11 15:40 169 8 gusting 11 29.8
2020-Aug-11 15:30 228 3 gusting 7 29.8
2020-Aug-11 15:20 190 4 gusting 9 29.9
2020-Aug-11 15:10 173 4 gusting 7 29.6
2020-Aug-11 14:40 182 4 gusting 8 28.6
2020-Aug-11 14:30 198 3 gusting 8 28.1
2020-Aug-11 14:20 190 5 gusting 6 27.4
2020-Aug-11 14:10 204 6 gusting 8 27.6
2020-Aug-11 14:00 184 4 gusting 8 26.8
2020-Aug-11 13:50 196 5 gusting 6 26.4
2020-Aug-11 13:40 189 1 gusting 6 26.4
2020-Aug-11 13:30 175 2 gusting 8 26.7
2020-Aug-11 13:20 176 2 gusting 6 26.6
2020-Aug-11 13:10 195 3 gusting 6 26.4
2020-Aug-11 13:00 188 3 gusting 6 26.3
2020-Aug-11 12:50 208 6 gusting 6 25.8
2020-Aug-11 12:40 173 4 gusting 7 25.4
2020-Aug-11 12:30 173 4 gusting 5 25.7
2020-Aug-11 12:10 185 2 gusting 6 25.1
2020-Aug-11 12:00 190 3 gusting 6 24.9
2020-Aug-11 11:50 179 2 gusting 6 24.8
2020-Aug-11 11:40 188 3 gusting 5 24.7
2020-Aug-11 11:30 185 2 gusting 5 24.5
2020-Aug-11 11:20 185 2 gusting 6 24.4
2020-Aug-11 11:10 205 2 gusting 8 24.1
2020-Aug-11 11:00 196 3 gusting 5 23.8
2020-Aug-11 10:50 200 2 gusting 4 23.4
2020-Aug-11 10:40 223 2 gusting 3 23.2
2020-Aug-11 10:30 223 1 gusting 2 22.9
2020-Aug-11 10:20 223 0 gusting 2 22.9
2020-Aug-11 10:10 22.9
2020-Aug-11 10:00 223 1 gusting 3 23.1
2020-Aug-11 09:50 223 0 gusting 3 23.5
2020-Aug-11 09:40 223 1 gusting 5 23.7
2020-Aug-11 09:30 219 2 gusting 5 23.6
2020-Aug-11 09:20 219 2 gusting 4 23.4
2020-Aug-11 09:00 219 0 gusting 1 23.4
2020-Aug-11 08:50 23.6
2020-Aug-11 08:30 219 2 gusting 4 23.8
2020-Aug-11 08:20 219 2 gusting 5 23.8
2020-Aug-11 08:10 219 2 gusting 5 23.9
2020-Aug-11 08:00 211 2 gusting 4 23.9
2020-Aug-11 07:50 210 2 gusting 5 23.9
2020-Aug-11 07:40 203 1 gusting 4 23.7
2020-Aug-11 07:30 194 2 gusting 5 23.8
2020-Aug-11 07:20 189 3 gusting 5 24.3
2020-Aug-11 07:10 209 2 gusting 3 24.9
2020-Aug-11 07:00 219 0 gusting 2 25.6
2020-Aug-11 06:50 219 1 gusting 5 26.0
2020-Aug-11 06:40 229 3 gusting 7 26.0
2020-Aug-11 06:30 232 2 gusting 5 26.1
2020-Aug-11 06:20 236 2 gusting 6 26.0
2020-Aug-11 06:10 247 2 gusting 6 25.9
2020-Aug-11 05:50 239 4 gusting 7 25.6
2020-Aug-11 05:40 209 2 gusting 3 25.7
2020-Aug-11 05:30 215 1 gusting 3 26.3
2020-Aug-11 05:20 216 0 gusting 5 27.1
2020-Aug-11 05:10 236 1 gusting 6 27.2
2020-Aug-11 05:00 27.3
2020-Aug-11 04:50 27.3
2020-Aug-11 04:40 246 4 gusting 7 27.2
2020-Aug-11 04:20 226 4 gusting 6 26.7
2020-Aug-11 04:10 219 2 gusting 4 26.4
2020-Aug-11 04:00 221 3 gusting 4 26.3
2020-Aug-11 03:50 221 1 gusting 2 26.3
2020-Aug-11 03:40 221 1 gusting 3 26.4
2020-Aug-11 03:20 221 1 gusting 6 27.2
2020-Aug-11 03:10 223 3 gusting 4 27.3
2020-Aug-11 03:00 225 2 gusting 6 27.3
2020-Aug-11 02:50 233 3 gusting 7 27.3
2020-Aug-11 02:40 208 6 gusting 7 27.2
2020-Aug-11 02:30 180 2 gusting 11 28.2
2020-Aug-11 02:20 225 8 gusting 10 29.0
2020-Aug-11 02:10 219 5 gusting 12 28.4
2020-Aug-11 01:50 185 2 gusting 6 27.9
2020-Aug-11 01:40 201 2 gusting 7 28.3
2020-Aug-11 01:30 217 6 gusting 10 28.3
2020-Aug-11 01:20 207 2 gusting 8 28.2
2020-Aug-11 01:10 199 4 gusting 9 28.3
2020-Aug-11 00:40 211 5 gusting 8 28.4
2020-Aug-11 00:30 186 5 gusting 9 28.5
2020-Aug-11 00:20 211 5 gusting 8 28.6
2020-Aug-11 00:10 196 4 gusting 8 28.7
2020-Aug-10 23:50 198 0 gusting 3 28.8
2020-Aug-10 23:40 198 1 gusting 2 29.2
2020-Aug-10 23:30 198 0 gusting 0 29.4
2020-Aug-10 23:20 198 0 gusting 1 29.4
2020-Aug-10 23:10 29.4
2020-Aug-10 22:50 198 0 gusting 2 29.6
2020-Aug-10 22:40 198 2 gusting 3 29.8
2020-Aug-10 22:30 30.1
2020-Aug-10 22:20 198 0 gusting 3 29.4
2020-Aug-10 22:10 198 2 gusting 5 29.4
2020-Aug-10 21:50 211 2 gusting 5 28.7
2020-Aug-10 21:40 208 2 gusting 4 28.7
2020-Aug-10 21:30 201 5 gusting 6 28.6
2020-Aug-10 21:20 200 0 gusting 6 28.7
2020-Aug-10 21:10 173 0 gusting 6 29.2
2020-Aug-10 21:00 199 1 gusting 6 28.6
2020-Aug-10 20:50 203 0 gusting 4 28.7
2020-Aug-10 20:30 214 3 gusting 5 29.1
2020-Aug-10 20:20 209 1 gusting 5 28.3
2020-Aug-10 20:10 217 0 gusting 6 28.6
2020-Aug-10 20:00 230 0 gusting 11 29.0
2020-Aug-10 19:50 187 4 gusting 8 29.7
2020-Aug-10 19:40 201 3 gusting 6 29.4
2020-Aug-10 19:30 174 0 gusting 7 29.4
2020-Aug-10 19:20 196 0 gusting 6 29.4
2020-Aug-10 19:10 180 4 gusting 7 28.5
2020-Aug-10 19:00 206 6 gusting 6 29.3
2020-Aug-10 18:50 196 2 gusting 8 28.9
2020-Aug-10 18:40 163 6 gusting 9 28.6
2020-Aug-10 18:30 195 1 gusting 6 29.4
2020-Aug-10 18:20 169 4 gusting 7 29.4
2020-Aug-10 18:10 202 6 gusting 8 29.9
2020-Aug-10 18:00 185 1 gusting 7 31.2